Regional Weather Roundup
Issued by NWS Green Bay, WI

Home | Current Version | Previous Version | Graphics & Text | Print | Product List | Glossary Off
Versions: 1 2 3 4 5 6 7 8 9 10 11 12 13 14 15 16 17 18 19 20 21 22 23 24 25 26 27 28 29 30 31 32 33 34 35 36 37 38 39 40 41 42 43 44 45 46 47 48 49 50

000
ASUS43 KGRB 201610
RWRGRB

NORTH-CENTRAL AND NORTHEAST WISCONSIN REGIONAL WEATHER ROUNDUP
NATIONAL WEATHER SERVICE GREEN BAY WI
1000 AM CST SAT DEC 20 2014

WIZ005-009-010>012-018-019-201700-
NORTH CENTRAL WISCONSIN

CITY           SKY/WX    TMP DP  RH WIND       PRES   REMARKS
IRONWOOD       CLOUDY    27  25  93 S6        30.15S
MANITOWISH WTR CLOUDY    24  24 100 S6        30.18R FOG
ARBOR VITAE    CLOUDY    25  23  92 CALM      30.18R FOG
EAGLE RIVER    LGT SNOW  24  24 100 CALM      30.18S
LAND O LAKES   CLOUDY    24  23  97 CALM      30.19S FOG
RHINELANDER    CLOUDY    23  22  96 S3        30.19S FOG
PHILLIPS       CLOUDY    25  23  93 S3        30.17S FOG
ANTIGO         CLOUDY    23  23  99 CALM      30.21R FOG
TOMAHAWK       CLOUDY    25  23  92 CALM      30.20R FOG
MERRILL        CLOUDY    26  24  94 CALM      30.21R FOG
$$

WIZ013-073-201700-
NORTHEAST WISCONSIN

CITY           SKY/WX    TMP DP  RH WIND       PRES   REMARKS
IRON MOUNTAIN  CLOUDY    21  19  92 CALM      30.22R
MARINETTE      CLOUDY    23  19  86 CALM      30.27S
OCONTO         CLOUDY    25  24  96 CALM      30.28S
$$

WIZ017-030-035>037-045-201700-
CENTRAL WISCONSIN

CITY           SKY/WX    TMP DP  RH WIND       PRES   REMARKS
MEDFORD        CLOUDY    25  23  91 S6        30.19S FOG
WAUSAU         CLOUDY    26  23  88 SE7       30.20S FOG
MOSINEE        CLOUDY    25  25 100 SE6       30.23R FOG
MARSHFIELD     CLOUDY    27  23  85 S7        30.21R
WISC RAPIDS    CLOUDY    27  22  81 S3        30.25R
STEVENS POINT  CLOUDY    25  22  89 SE5       30.24R FOG
WAUPACA        CLOUDY    29  24  82 CALM      30.26S HAZE
SHAWANO        CLOUDY    27  24  88 CALM      30.26S
CLINTONVILLE   CLOUDY    28  23  80 CALM      30.26S FOG
$$

WIZ038-039-048-051-201700-
FOX VALLEY

CITY           SKY/WX    TMP DP  RH WIND       PRES   REMARKS
NWS GREEN BAY  CLOUDY    26  22  84 S3        30.28R
APPLETON       CLOUDY    27  21  80 VRB3      30.26S
OSHKOSH        CLOUDY    27  21  78 CALM      30.26S HAZE
FOND DU LAC    CLOUDY    27  21  78 CALM      30.26S
$$

WIZ022-050-052-201700-
EAST CENTRAL WISCONSIN

CITY           SKY/WX    TMP DP  RH WIND       PRES   REMARKS
STURGEON BAY   CLOUDY    27  21  80 CALM      30.28S
MANITOWOC      CLOUDY    29  24  82 N3        30.27S
SHEBOYGAN      CLOUDY    28  21  75 NW3       30.27S
$$

LMZ563-521-522-541>543-201700-
LAKESHORE

STATION/POSITION TIME  TEMP    WIND        PRES    VSBY  WAVE
                       AIR SEA DIR/SP/G                  HT/PER
                 (UTC) (F)     (DEG/KT/KT) (MB)    (MI)  (FT/S)
SHEBOYGAN LKSHOR 1600   29 34  320/  4/  4 1026.1S
KEWAUNEE LKSHORE 1600   28      CALM  /  1 1024.0S
ALGOMA MARINA    1500          340/  7/  8   N/A
TWO RIVERS CG    1600   29                 1025.3      6   1
NORTHPORT PIER   1600   29     260/  1/  3 1025.1S
STURGEON BAY CG  1600   28     310/  4     1025.6      6   0
CHAMBERS ISLAND  1600   26     220/  3/  4 1025.1S
MENOMINEE LKSHOR 1600   24     220/  3/  3 1025.7R
$$


USA.gov is the U.S. government's official web portal to all federal, state and local government web resources and services.